Home   Weather   Tübingen   Past weeks

Flag for Germany Past Weather in Tübingen, Baden-Württemberg, Germany — Yesterday and Last 2 Weeks

Now
77 °F

Sunny.


Feels Like: 78 °F
Forecast: 54 / 77 °F
Wind: 13 mph from Northwest

Location: Stuttgart-Echterdingen

Current Time: Jun 24, 2017 at 8:55:58 pm

Latest Report: Jun 24, 2017 at 8:20 pm


Visibility: 10 mi

Pressure: 29.98 "Hg

Humidity: 44%

Dew Point: 54 °F

Location of TübingenLocation

Past Weather in Tübingen — Graph

°F

Tübingen Temperature Yesterday

Maximum temperature yesterday: 86 °F (at 3:20 pm)
Minimum temperature yesterday: 70 °F (at 10:50 pm)
Average temperature yesterday: 79 °F

High & Low Weather Summary for the Past Weeks

 TemperatureHumidityPressure
High91 °F (Jun 22, 1:20 pm)100% (Jun 10, 1:20 am)30.30 "Hg (Jun 10, 1:20 am)
Low50 °F (Jun 10, 4:50 am)27% (Jun 19, 7:20 pm)29.89 "Hg (Jun 22, 8:50 pm)
Average71 °F59%30.08 "Hg
* Reported Jun 9 7:20 pm — Jun 24 7:50 pm, Tübingen. Weather by CustomWeather, © 2017

Note: Actual official high and low records may vary slightly from our data, if they occured in-between our weather recording intervals... More about our weather records

Advertising

Tübingen Weather History for the Previous 24 Hours

Scroll right to see more
 ConditionsComfort  
Time TempWeatherWind HumidityBarometerVisibility
7:50 pm
Sat, Jun 24
77 °FSunny.9 mph44%29.98 "Hg10 mi
7:20 pm79 °FPassing clouds.9 mph42%30.01 "HgN/A
6:50 pm81 °FPassing clouds.7 mph37%29.98 "HgN/A
6:20 pm79 °FPassing clouds.8 mph42%30.01 "HgN/A
5:50 pm82 °FPassing clouds.12 mph37%30.01 "HgN/A
5:20 pm82 °FSunny.9 mph37%30.01 "Hg10 mi
4:50 pm81 °FPassing clouds.10 mph37%30.01 "HgN/A
4:20 pm81 °FPassing clouds.12 mph37%30.01 "HgN/A
3:50 pm81 °FPassing clouds.15 mph39%30.01 "HgN/A
3:20 pm81 °FPassing clouds.14 mph39%30.04 "HgN/A
2:50 pm81 °FPassing clouds.12 mph39%30.04 "HgN/A
2:20 pm79 °FPassing clouds.13 mph45%30.04 "HgN/A
1:50 pm79 °FPassing clouds.14 mph45%30.04 "HgN/A
1:20 pm79 °FSunny.8 mph48%30.07 "Hg10 mi
12:50 pm77 °FPassing clouds.12 mph44%30.07 "HgN/A
12:20 pm77 °FPassing clouds.13 mph44%30.07 "HgN/A
11:50 am75 °FPassing clouds.12 mph47%30.07 "HgN/A
11:20 am75 °FScattered clouds.9 mph47%30.09 "HgN/A
10:50 am75 °FScattered clouds.9 mph47%30.09 "HgN/A
10:20 am73 °FPassing clouds.14 mph53%30.09 "HgN/A
9:50 am72 °FPassing clouds.13 mph53%30.09 "HgN/A
9:20 am72 °FPassing clouds.10 mph57%30.09 "HgN/A
8:20 am70 °FScattered clouds.10 mph60%30.09 "HgN/A
7:50 am68 °FScattered clouds.8 mph64%30.09 "HgN/A
7:20 am66 °FPartly sunny.5 mph68%30.09 "HgN/A
6:50 am66 °FPartly sunny.5 mph68%30.09 "HgN/A
6:20 am66 °FPartly sunny.6 mph68%30.09 "HgN/A
5:50 am64 °FPartly sunny.5 mph73%30.09 "HgN/A
5:20 am64 °FPartly sunny.7 mph78%30.09 "HgN/A
4:50 am64 °FPassing clouds.6 mph73%30.09 "HgN/A
4:20 am63 °FPassing clouds.3 mph77%30.09 "HgN/A
3:50 am63 °FClear.3 mph77%30.09 "Hg10 mi
3:20 am64 °FClear.5 mph73%30.09 "Hg10 mi
2:50 am64 °FClear.5 mph73%30.09 "Hg10 mi
2:20 am64 °FPassing clouds.3 mph73%30.09 "HgN/A
1:50 am63 °FClear.2 mph77%30.09 "Hg10 mi
1:20 am63 °FClear.3 mph77%30.09 "Hg10 mi
12:50 am64 °FClear.3 mph73%30.09 "Hg10 mi
12:20 am66 °FClear.5 mph68%30.09 "Hg10 mi
11:50 pm
Fri, Jun 23
70 °FClear.6 mph60%30.09 "Hg10 mi
11:20 pm70 °FClear.5 mph60%30.09 "Hg10 mi
10:50 pm70 °FPassing clouds.3 mph60%30.07 "HgN/A
10:20 pm73 °FClear.5 mph53%30.07 "Hg10 mi
9:50 pm75 °FClear.7 mph50%30.07 "Hg10 mi
9:20 pm75 °FSunny.10 mph50%30.04 "Hg10 mi
8:50 pm77 °FSunny.13 mph47%30.04 "Hg10 mi
8:20 pm79 °FSunny.13 mph45%30.04 "Hg10 mi
Weather by CustomWeather, © 2017

See weather overviewHow to use our weather pages